Left ArrowRight Arrow

41.55636, -103.73856

Hourly Observations for June 17, 2024

Temp ( °F °C ) Dew Point ( °F °C ) Humidity (%) Winds ( mph kmh ) Pressure ( in mb ) Visibility ( mi km ) Precip ( " mm )
12:55 am 00:55 Mostly Cloudy 60 15.3 53 11.7 79 79 NE 9 15 29.61 1003 10 16 0.00 0.00
1:55 am 01:55 Mostly Cloudy 56 13.5 48 8.8 73 73 NE 9 15 29.61 1003 10 16 0.00 0.00
2:55 am 02:55 Cloudy 58 14.3 49 9.7 74 74 ENE 12 19 29.60 1002 10 16 0.00 0.00
3:55 am 03:55 Cloudy 56 13.1 49 9.3 78 78 NE 9 15 29.60 1002 10 16 0.00 0.00
4:55 am 04:55 Cloudy 56 13.1 49 9.5 79 79 NNE 6 9 29.61 1003 10 16 0.00 0.00
5:55 am 05:55 Cloudy 56 13.2 49 9.4 78 78 NW 5 7 29.63 1003 10 16 0.00 0.00
6:55 am 06:55 Cloudy 56 13.6 50 10 79 79 NNW 6 9 29.63 1003 10 16 0.00 0.00
7:55 am 07:55 Cloudy 57 13.9 51 10.7 81 81 N 7 11 29.63 1003 10 16 0.00 0.00
8:55 am 08:55 Cloudy 58 14.4 53 11.9 85 85 NE 5 7 29.62 1003 10 16 0.00 0.00
9:55 am 09:55 Cloudy 60 15.3 55 12.8 85 85 S 3 6 29.61 1003 10 16 0.00 0.00
10:55 am 10:55 Cloudy 62 16.5 55 13 80 80 Calm 29.58 1002 10 16 0.00 0.00
11:55 am 11:55 Cloudy 66 19.1 57 13.9 72 72 ESE 5 7 29.54 1000 10 16 0.00 0.00
12:55 pm 12:55 Cloudy 70 21.2 59 14.8 67 67 E 6 9 29.49 999 10 16 0.00 0.00
1:55 pm 13:55 Sunny 74 23.5 61 16 63 63 E 10 17 29.44 997 10 16 0.00 0.00
2:55 pm 14:55 Sunny 77 25.1 60 15.7 56 56 SSE 16 26 29.40 996 10 16 0.00 0.00
3:55 pm 15:55 Sunny 80 26.9 62 16.5 53 53 SE 20 31 29.37 995 10 16 0.00 0.00
4:55 pm 16:55 Sunny 85 29.7 61 16.1 44 44 SE 20 31 29.32 993 10 16 0.00 0.00
5:55 pm 17:55 Sunny 84 29.1 61 15.9 45 45 SE 16 26 29.29 992 10 16 0.00 0.00
6:55 pm 18:55 Sunny 81 27.4 60 15.7 49 49 SE 15 24 29.28 992 10 16 0.00 0.00
7:55 pm 19:55 Partly Cloudy 74 23.5 63 17 67 67 E 8 13 29.27 991 10 16 0.00 0.00
8:55 pm 20:55 Mostly Cloudy 76 24.3 62 16.5 62 62 SSE 5 7 29.26 991 10 16 0.00 0.00

Powered by Vaisala Xweather